N5VKM Weather Reports


Display with metric or nautical units.
time (UTC)temp
F
wind
direction
speed
MPH
gust
MPH
rain 1hr
in
rain 24hr
in
rain mn
in
humidity
%
barometer
mb
20260509034533 69 333 0.0 0.0 0.00 0.20 0.20 87 1009.6
20260509034027 69 333 0.0 0.0 0.00 0.20 0.20 87 1009.9
20260509033546 69 335 0.0 0.0 0.00 0.20 0.20 87 1010.3
20260509033033 70 336 0.0 0.0 0.00 0.20 0.20 86 1009.8
20260509032540 70 336 0.0 0.0 0.00 0.20 0.20 85 1009.8
20260509032032 70 333 0.0 0.0 0.00 0.20 0.20 84 1009.6
20260509031541 71 334 0.0 0.0 0.00 0.20 0.20 83 1009.9
20260509031055 71 334 0.0 0.0 0.00 0.20 0.20 82 1009.6
20260509030545 71 334 0.0 0.0 0.00 0.20 0.20 81 1009.8
20260509030035 71 335 0.0 0.0 0.00 0.20 0.20 81 1009.9
20260509025544 71 332 0.0 0.0 0.00 0.20 0.20 81 1010.3
20260509025032 71 333 0.0 0.0 0.00 0.20 0.20 81 1010.5
20260509024605 71 334 0.0 0.0 0.00 0.20 0.20 81 1010.5
20260509024035 71 334 0.0 0.0 0.00 0.20 0.20 81 1010.4
20260509023544 71 334 0.0 0.0 0.00 0.20 0.20 81 1010.2
20260509023030 71 334 0.0 0.0 0.00 0.20 0.20 81 1010.1
20260509022544 71 334 0.0 0.0 0.00 0.20 0.20 81 1009.9
20260509022035 71 334 0.0 0.0 0.00 0.20 0.20 81 1009.8
20260509021545 71 334 0.0 0.0 0.00 0.20 0.20 80 1009.8
20260509021035 71 333 0.0 0.0 0.00 0.20 0.20 80 1009.6
20260509020533 71 333 0.0 0.0 0.00 0.20 0.20 79 1009.3
20260509020107 71 334 0.0 0.0 0.00 0.20 0.20 79 1009.1
20260509015540 72 334 0.0 0.0 0.00 0.20 0.20 79 1009.0
20260509015048 72 333 0.0 0.0 0.00 0.20 0.20 78 1008.9
20260509014534 72 334 0.0 0.0 0.00 0.20 0.20 78 1008.7
20260509014042 72 334 0.0 0.0 0.00 0.20 0.20 78 1008.7
20260509013553 72 334 0.0 0.0 0.00 0.20 0.20 78 1008.8
20260509013041 72 335 0.0 0.0 0.00 0.20 0.20 77 1008.9
20260509012528 72 334 0.0 0.0 0.00 0.20 0.20 77 1008.8
20260509012041 72 334 0.0 0.0 0.00 0.20 0.20 76 1008.7
20260509011558 73 335 0.0 0.0 0.00 0.20 0.20 76 1008.7
20260509011046 73 334 0.0 0.0 0.00 0.20 0.20 76 1008.7
20260509010544 73 334 0.0 0.0 0.00 0.20 0.20 75 1008.7
20260509010032 73 334 0.0 0.0 0.00 0.20 0.20 75 1008.8
20260509005539 73 333 0.0 0.0 0.01 0.20 0.20 75 1008.7
20260509005034 74 334 0.0 0.0 0.01 0.20 0.20 75 1008.7
20260509004548 74 334 0.0 0.0 0.01 0.20 0.20 75 1008.7
20260509004040 74 335 0.0 0.0 0.01 0.20 0.20 75 1008.6
20260509003531 74 336 0.0 0.0 0.01 0.20 0.20 75 1008.6
20260509003040 74 334 0.0 0.0 0.01 0.20 0.20 75 1008.5
20260509002535 74 333 0.0 0.0 0.01 0.20 0.20 75 1008.3
20260509002043 74 333 0.0 0.0 0.01 0.20 0.20 75 1008.3
20260509001531 74 334 0.0 0.0 0.01 0.20 0.20 75 1008.2
20260509001045 74 335 0.0 0.0 0.01 0.20 0.20 75 1008.2
20260509000603 75 334 0.0 0.0 0.01 0.20 0.20 74 1008.2
20260509000052 75 334 0.0 0.0 0.01 0.20 0.20 74 1008.3
20260508235545 75 334 0.0 0.0 0.00 0.19 0.19 73 1008.3
20260508235032 75 334 0.0 0.0 0.00 0.19 0.19 73 1008.3
20260508234541 76 334 0.0 0.0 0.00 0.19 0.19 73 1008.3
20260508234049 76 334 0.0 0.0 0.00 0.19 0.19 72 1008.3
20260508233559 76 333 0.0 0.0 0.00 0.19 0.19 72 1008.4
20260508233049 76 336 0.0 0.0 0.00 0.19 0.19 71 1008.3
20260508232546 76 334 0.0 0.0 0.00 0.19 0.19 71 1008.4
20260508232042 76 333 0.0 0.0 0.00 0.19 0.19 71 1008.4
20260508231553 77 333 0.0 0.0 0.00 0.19 0.19 70 1008.5
20260508231039 77 333 0.0 0.0 0.00 0.19 0.19 70 1008.5
20260508230531 77 333 0.0 0.0 0.00 0.19 0.19 70 1008.6
20260508230044 77 333 0.0 0.0 0.00 0.19 0.19 69 1008.6
20260508225538 78 333 0.0 0.0 0.00 0.19 0.19 69 1008.5
20260508225046 78 334 0.0 0.0 0.00 0.19 0.19 68 1008.5
20260508224534 78 333 0.0 0.0 0.00 0.19 0.19 67 1008.4
20260508224045 78 333 0.0 0.0 0.00 0.19 0.19 66 1008.5
20260508223559 78 334 0.0 0.0 0.00 0.19 0.19 66 1008.5
20260508223032 78 334 0.0 0.0 0.00 0.19 0.19 66 1008.5
20260508222540 78 333 0.0 0.0 0.00 0.19 0.19 66 1008.6
20260508222028 78 333 0.0 0.0 0.00 0.19 0.19 64 1008.6
20260508221539 79 333 0.0 0.0 0.00 0.19 0.19 65 1008.6
20260508221030 78 335 0.0 0.0 0.00 0.19 0.19 65 1008.6
20260508220540 78 335 0.0 0.0 0.00 0.19 0.19 65 1008.5
20260508220028 79 333 0.0 0.0 0.00 0.19 0.19 65 1008.4
20260508215542 79 335 0.0 0.0 0.00 0.19 0.19 64 1008.5
20260508215031 79 332 0.0 0.0 0.00 0.19 0.19 66 1008.4
20260508214543 79 333 0.0 0.0 0.00 0.19 0.19 66 1008.5
20260508214057 79 333 0.0 0.0 0.00 0.19 0.19 66 1008.5
20260508213547 79 333 0.0 0.0 0.00 0.19 0.19 65 1008.4
20260508213035 80 334 0.0 0.0 0.00 0.19 0.19 66 1008.6
20260508212542 80 331 0.0 0.0 0.00 0.19 0.19 66 1008.8
20260508212034 79 335 0.0 0.0 0.00 0.19 0.19 66 1009.0
20260508211542 79 333 0.0 0.0 0.00 0.19 0.19 66 1009.1
20260508211033 79 334 0.0 0.0 0.00 0.19 0.19 66 1009.1
20260508210541 79 333 0.0 0.0 0.00 0.19 0.19 65 1009.1
20260508210034 79 333 0.0 0.0 0.00 0.19 0.19 66 1009.3
20260508205545 78 333 0.0 0.0 0.00 0.19 0.19 65 1009.5
20260508205033 79 333 0.0 0.0 0.00 0.19 0.19 65 1009.7
20260508204546 79 333 0.0 0.0 0.00 0.19 0.19 64 1009.8
20260508204034 79 333 0.0 0.0 0.00 0.19 0.19 64 1009.9
20260508203541 79 333 0.0 0.0 0.00 0.19 0.19 64 1009.9
20260508203033 79 335 0.0 0.0 0.00 0.19 0.19 65 1009.9
20260508202540 79 332 0.0 0.0 0.00 0.19 0.19 65 1010.0
20260508202032 78 336 0.0 0.0 0.00 0.19 0.19 64 1010.2
20260508201603 78 334 0.0 0.0 0.00 0.19 0.19 65 1010.5
20260508201039 77 333 0.0 0.0 0.00 0.19 0.19 65 1010.5
20260508200531 77 334 0.0 0.0 0.00 0.19 0.19 64 1010.6
20260508200041 77 334 0.0 0.0 0.00 0.19 0.19 64 1010.6
20260508195533 77 334 0.0 0.0 0.00 0.19 0.19 65 1010.7
20260508195040 77 334 0.0 0.0 0.00 0.19 0.19 66 1010.7
20260508194533 76 335 0.0 0.0 0.00 0.19 0.19 66 1010.8
20260508194103 77 334 0.0 0.0 0.00 0.19 0.19 65 1010.8
20260508193532 77 334 0.0 0.0 0.00 0.19 0.19 64 1010.8
20260508193034 78 335 0.0 0.0 0.00 0.19 0.19 64 1010.8
20260508192601 78 335 0.0 0.0 0.00 0.19 0.19 63 1010.7
20260508192046 78 335 0.0 0.0 0.00 0.19 0.19 65 1010.8
20260508191553 77 333 0.0 0.0 0.00 0.19 0.19 65 1010.7
20260508191027 77 333 0.0 0.0 0.00 0.19 0.19 64 1010.8
20260508190554 78 333 0.0 0.0 0.00 0.19 0.19 62 1010.8
20260508190030 78 333 0.0 0.0 0.00 0.19 0.19 64 1010.9
20260508185538 78 334 0.0 0.0 0.00 0.19 0.19 63 1010.9
20260508185031 78 335 0.0 0.0 0.00 0.19 0.19 65 1011.0
20260508184539 77 333 0.0 0.0 0.00 0.19 0.19 65 1011.0
20260508184046 77 333 0.0 0.0 0.00 0.19 0.19 67 1011.0
20260508183537 76 335 0.0 0.0 0.00 0.19 0.19 66 1011.2
20260508183031 76 333 0.0 0.0 0.00 0.19 0.19 66 1011.3
20260508182605 76 333 0.0 0.0 0.00 0.19 0.19 69 1011.4
20260508182102 75 333 0.0 0.0 0.00 0.19 0.19 67 1011.6
20260508181530 75 334 0.0 0.0 0.00 0.19 0.19 69 1011.8
20260508181041 75 333 0.0 0.0 0.00 0.19 0.19 68 1011.7
20260508180529 74 333 0.0 0.0 0.00 0.19 0.19 67 1011.8
20260508180105 74 333 0.0 0.0 0.00 0.19 0.19 66 1011.9
20260508175554 74 333 0.0 0.0 0.00 0.19 0.19 69 1012.1
20260508175029 73 333 0.0 0.0 0.00 0.19 0.19 69 1012.2
20260508174542 73 332 0.0 0.0 0.00 0.19 0.19 72 1012.3
20260508174035 73 331 0.0 0.0 0.00 0.19 0.19 72 1012.4
20260508173542 73 334 0.0 0.0 0.00 0.19 0.19 72 1012.7
20260508173035 72 333 0.0 0.0 0.00 0.19 0.19 74 1012.8
20260508172548 72 333 0.0 0.0 0.00 0.19 0.19 75 1012.9
20260508172036 71 333 0.0 0.0 0.00 0.19 0.19 75 1013.0
20260508171547 71 335 0.0 0.0 0.00 0.19 0.19 75 1013.0
20260508171038 71 334 0.0 0.0 0.00 0.19 0.19 75 1013.1
20260508170530 70 336 0.0 0.0 0.00 0.19 0.19 78 1013.3
20260508170039 70 335 0.0 0.0 0.00 0.19 0.19 78 1013.4
20260508165556 69 336 0.0 0.0 0.00 0.19 0.19 78 1013.5
20260508165044 69 336 0.0 0.0 0.00 0.19 0.19 80 1013.6
20260508164538 68 336 0.0 0.0 0.00 0.19 0.19 83 1013.7
20260508164045 67 334 0.0 0.0 0.01 0.19 0.19 84 1013.8
20260508163536 67 333 0.0 0.0 0.01 0.19 0.19 85 1013.9
20260508163106 66 336 0.0 0.0 0.01 0.19 0.19 86 1013.9
20260508162607 66 335 0.0 0.0 0.01 0.19 0.19 86 1013.9
20260508162037 66 335 0.0 0.0 0.01 0.19 0.19 88 1014.0
20260508161545 65 336 0.0 0.0 0.01 0.19 0.19 88 1013.9
20260508161031 65 336 0.0 0.0 0.01 0.19 0.19 88 1014.0
20260508160543 65 336 0.0 0.0 0.01 0.19 0.19 88 1014.1
20260508160032 65 335 0.0 0.0 0.01 0.19 0.19 88 1014.1
20260508155543 64 336 0.0 0.0 0.01 0.19 0.19 88 1013.9
20260508155030 64 336 0.0 0.0 0.01 0.19 0.19 88 1014.2
20260508154604 64 335 0.0 0.0 0.01 0.19 0.19 89 1014.3
20260508154034 64 336 0.0 0.0 0.00 0.18 0.18 90 1014.3
20260508153544 64 334 0.0 0.0 0.00 0.18 0.18 90 1014.2
20260508153033 64 336 0.0 0.0 0.00 0.18 0.18 90 1014.3
20260508152541 63 336 0.0 0.0 0.00 0.18 0.18 90 1014.2
20260508152055 63 334 0.0 0.0 0.00 0.18 0.18 89 1014.2
20260508151532 63 334 0.0 0.0 0.00 0.18 0.18 89 1014.3
20260508151044 63 335 0.0 0.0 0.00 0.18 0.18 89 1014.3
20260508150530 63 335 0.0 0.0 0.00 0.18 0.18 88 1014.3
20260508150038 63 335 0.0 0.0 0.00 0.18 0.18 88 1014.3
20260508145529 63 335 0.0 0.0 0.00 0.18 0.18 90 1014.5
20260508145041 63 337 0.0 0.0 0.00 0.18 0.18 91 1014.4
20260508144533 63 334 0.0 0.0 0.01 0.18 0.18 92 1014.3
20260508144043 63 336 0.0 0.0 0.01 0.18 0.18 92 1014.4
20260508143529 63 335 0.0 0.0 0.01 0.18 0.18 92 1014.4
20260508143043 62 335 0.0 0.0 0.01 0.18 0.18 92 1014.4
20260508142536 62 335 0.0 0.0 0.02 0.18 0.18 92 1014.5
20260508142044 62 334 0.0 0.0 0.02 0.18 0.18 92 1014.5
20260508141535 62 335 0.0 0.0 0.03 0.18 0.18 92 1014.7
20260508141047 62 335 0.0 0.0 0.03 0.18 0.18 92 1014.8
20260508140536 62 335 0.0 0.0 0.04 0.18 0.18 92 1014.7
20260508140047 61 335 0.0 0.0 0.04 0.18 0.18 92 1014.9
20260508135535 61 335 0.0 0.0 0.05 0.18 0.18 92 1014.9
20260508135041 61 335 0.0 0.0 0.05 0.18 0.18 92 1015.1
20260508134555 61 336 0.0 0.0 0.05 0.17 0.17 92 1015.2
20260508134027 61 334 0.0 0.0 0.06 0.17 0.17 92 1014.9
20260508133540 61 334 0.0 0.0 0.06 0.17 0.17 92 1014.7
20260508133054 61 335 0.0 0.0 0.07 0.17 0.17 92 1014.7
20260508132544 61 334 0.0 0.0 0.06 0.16 0.16 92 1014.8
20260508132031 60 334 0.0 0.0 0.07 0.16 0.16 92 1014.7
20260508131538 60 334 0.0 0.0 0.07 0.15 0.15 92 1015.1
20260508131045 60 334 0.0 0.0 0.07 0.15 0.15 92 1014.9
20260508130532 60 334 0.0 0.0 0.07 0.14 0.14 92 1014.5
20260508130038 59 334 0.0 0.0 0.08 0.14 0.14 92 1014.7
20260508125532 59 335 0.0 0.0 0.07 0.13 0.13 92 1014.8
20260508125039 59 336 0.0 0.0 0.08 0.13 0.13 92 1014.9
20260508124535 59 335 0.0 0.0 0.07 0.12 0.12 92 1015.0
20260508124100 59 336 0.0 0.0 0.07 0.11 0.11 92 1015.0
20260508123536 59 336 0.0 0.0 0.07 0.11 0.11 92 1015.1
20260508123045 59 336 0.0 0.0 0.06 0.10 0.10 92 1015.4
20260508122552 59 336 0.0 0.0 0.06 0.10 0.10 91 1015.2
20260508122039 59 336 0.0 0.0 0.06 0.09 0.09 91 1015.6
20260508121552 59 336 0.0 0.0 0.05 0.08 0.08 91 1015.1
20260508121043 59 337 0.0 0.0 0.05 0.08 0.08 91 1015.4
20260508120538 59 337 0.0 0.0 0.05 0.07 0.07 91 1015.4
20260508120032 59 334 0.0 0.0 0.04 0.06 0.06 91 1014.9
20260508115540 59 334 0.0 0.0 0.04 0.06 0.06 91 1014.8
20260508115048 59 336 0.0 0.0 0.04 0.05 0.05 91 1015.8
20260508114535 59 336 0.0 0.0 0.04 0.05 0.05 91 1014.9
20260508114045 59 337 0.0 0.0 0.03 0.04 0.04 91 1014.7
20260508113537 59 338 0.0 0.0 0.03 0.04 0.04 91 1014.3
20260508113033 59 335 0.0 0.0 0.04 0.04 0.04 92 1014.2
20260508112543 60 336 0.0 0.0 0.04 0.04 0.04 92 1014.0
20260508112029 59 336 0.0 0.0 0.03 0.03 0.03 92 1014.1
20260508111604 60 335 0.0 0.0 0.03 0.03 0.03 92 1014.0
20260508111029 60 336 0.0 0.0 0.03 0.03 0.03 91 1014.5
20260508110603 60 337 0.0 0.0 0.02 0.02 0.02 91 1014.7
20260508110030 60 337 0.0 0.0 0.02 0.02 0.02 91 1014.8
20260508105541 60 337 0.0 0.0 0.02 0.02 0.02 91 1014.8
20260508105052 60 336 0.0 0.0 0.01 0.01 0.01 91 1014.2
20260508104543 60 334 0.0 0.0 0.01 0.01 0.01 91 1014.2
20260508104057 60 337 0.0 0.0 0.01 0.01 0.01 91 1014.6
20260508103529 60 335 0.0 0.0 0.01 0.01 0.01 91 1014.6
20260508103036 60 336 0.0 0.0 0.00 0.00 0.00 90 1014.5
20260508102608 60 337 0.0 0.0 0.00 0.00 0.00 90 1014.1
20260508102036 60 336 0.0 0.0 0.00 0.00 0.00 90 1014.3
20260508101608 60 335 0.0 0.0 0.00 0.00 0.00 90 1014.3
20260508101034 60 335 0.0 0.0 0.00 0.00 0.00 89 1013.6
20260508100545 60 335 0.0 0.0 0.00 0.00 0.00 89 1014.2
20260508100033 60 335 0.0 0.0 0.00 0.00 0.00 89 1014.0
20260508095608 60 335 0.0 0.0 0.00 0.00 0.00 88 1013.6
20260508095035 60 335 0.0 0.0 0.00 0.00 0.00 88 1014.0
20260508094545 60 335 0.0 0.0 0.00 0.00 0.00 88 1014.1
20260508094034 60 335 0.0 0.0 0.00 0.00 0.00 88 1014.1
20260508093542 60 335 0.0 0.0 0.00 0.00 0.00 88 1013.9
20260508093030 60 335 0.0 0.0 0.00 0.00 0.00 88 1013.9
20260508092541 60 335 0.0 0.0 0.00 0.00 0.00 88 1013.8
20260508092029 60 335 0.0 0.0 0.00 0.00 0.00 88 1014.0
20260508091539 60 335 0.0 0.0 0.00 0.00 0.00 87 1014.0
20260508091046 60 335 0.0 0.0 0.00 0.00 0.00 87 1014.2
20260508090534 61 335 0.0 0.0 0.00 0.00 0.00 87 1014.1
20260508090040 61 336 0.0 0.0 0.00 0.00 0.00 87 1014.4
20260508085532 61 336 0.0 0.0 0.00 0.00 0.00 87 1014.2
20260508085046 61 336 0.0 0.0 0.00 0.00 0.00 87 1014.2
20260508084557 61 336 0.0 0.0 0.00 0.00 0.00 87 1014.5
20260508084045 61 336 0.0 0.0 0.00 0.00 0.00 87 1014.3
20260508083602 61 336 0.0 0.0 0.00 0.00 0.00 87 1014.3
20260508083032 61 336 0.0 0.0 0.00 0.00 0.00 87 1014.5
20260508082540 61 336 0.0 0.0 0.00 0.00 0.00 87 1014.8
20260508082046 61 335 0.0 0.0 0.00 0.00 0.00 87 1014.6
20260508081539 61 335 0.0 0.0 0.00 0.00 0.00 87 1014.7
20260508081032 60 334 0.0 0.0 0.00 0.00 0.00 87 1014.8
20260508080546 60 335 0.0 0.0 0.00 0.00 0.00 86 1014.4
20260508080039 60 336 0.0 0.0 0.00 0.00 0.00 86 1015.1
20260508075531 60 336 0.0 0.0 0.00 0.00 0.00 87 1015.2
20260508075102 60 336 0.0 0.0 0.00 0.00 0.00 87 1015.1
20260508074532 60 336 0.0 0.0 0.00 0.00 0.00 87 1015.5
20260508074045 60 336 0.0 0.0 0.00 0.00 0.00 87 1015.4
20260508073536 60 335 0.0 0.0 0.00 0.00 0.00 87 1015.1
20260508073044 60 335 0.0 0.0 0.00 0.00 0.00 87 1014.8
20260508072531 60 335 0.0 0.0 0.00 0.00 0.00 87 1014.9
20260508072045 59 335 0.0 0.0 0.00 0.00 0.00 87 1015.0
20260508071540 59 335 0.0 0.0 0.00 0.00 0.00 87 1015.2
20260508071046 60 335 0.0 0.0 0.00 0.00 0.00 87 1015.1
20260508070535 60 335 0.0 0.0 0.00 0.00 0.00 87 1015.4
20260508070043 60 335 0.0 0.0 0.00 0.00 0.00 87 1015.5
20260508065553 60 335 0.0 0.0 0.00 0.00 0.00 86 1015.6
20260508065043 60 335 0.0 0.0 0.00 0.00 0.00 86 1015.6
20260508064531 60 335 0.0 0.0 0.00 0.00 0.00 86 1015.9
20260508064042 60 335 0.0 0.0 0.00 0.00 0.00 85 1015.9
20260508063529 60 335 0.0 0.0 0.00 0.00 0.00 85 1015.9
20260508063104 61 335 0.0 0.0 0.00 0.00 0.00 84 1015.8
20260508062529 61 335 0.0 0.0 0.00 0.00 0.00 84 1015.9
20260508062109 61 335 0.0 0.0 0.00 0.00 0.00 84 1015.8
20260508061535 61 335 0.0 0.0 0.00 0.00 0.00 84 1015.8
20260508061028 61 335 0.0 0.0 0.00 0.00 0.00 84 1015.9
20260508060542 61 335 0.0 0.0 0.00 0.00 0.00 85 1015.8
20260508060030 61 335 0.0 0.0 0.00 0.00 0.00 85 1015.8
20260508055540 61 335 0.0 0.0 0.00 0.00 0.00 85 1015.6
20260508055050 61 335 0.0 0.0 0.00 0.00 0.00 84 1015.7
20260508054543 61 335 0.0 0.0 0.00 0.00 0.00 84 1015.7
20260508054033 61 335 0.0 0.0 0.00 0.00 0.00 84 1015.8
20260508053541 61 335 0.0 0.0 0.00 0.00 0.00 83 1015.9
20260508053029 61 335 0.0 0.0 0.00 0.00 0.00 83 1015.9
20260508052602 61 335 0.0 0.0 0.00 0.00 0.00 82 1016.0
20260508052034 61 335 0.0 0.0 0.00 0.00 0.00 81 1016.1
20260508051601 61 335 0.0 0.0 0.00 0.00 0.00 81 1016.0
20260508051032 61 335 0.0 0.0 0.00 0.00 0.00 81 1015.9
20260508050546 61 335 0.0 0.0 0.00 0.00 0.00 80 1015.9
20260508050044 61 335 0.0 0.0 0.00 0.00 0.00 80 1015.8
20260508045532 61 335 0.0 0.0 0.00 0.00 0.00 80 1015.9
20260508045040 62 335 0.0 0.0 0.00 0.00 0.00 80 1016.1
20260508044528 62 335 0.0 0.0 0.00 0.00 0.00 79 1015.9
20260508044039 62 335 0.0 0.0 0.00 0.00 0.00 79 1015.9
20260508043546 62 335 0.0 0.0 0.00 0.00 0.00 80 1015.9
20260508043034 62 335 0.0 0.0 0.00 0.00 0.00 80 1015.9
20260508042544 62 335 0.0 0.0 0.00 0.00 0.00 80 1015.8
20260508042031 62 335 0.0 0.0 0.00 0.00 0.00 79 1015.9
20260508041607 62 335 0.0 0.0 0.00 0.00 0.00 79 1016.0
20260508041041 62 335 0.0 0.0 0.00 0.00 0.00 79 1016.0
20260508040536 62 335 0.0 0.0 0.00 0.00 0.00 79 1015.9
20260508040043 63 335 0.0 0.0 0.00 0.00 0.00 78 1015.9
20260508035533 63 335 0.0 0.0 0.00 0.00 0.00 77 1016.0
20260508035039 63 335 0.0 0.0 0.00 0.00 0.00 77 1016.0